When you browse on this site, cookies collect data to enhance your experience and personalize the content and advertising you see.
Visit our Privacy Policy to learn more. By continuing to use the site, you agree to this use of cookies and data.
  • In Austria
  • List of Countries
  • For 7 days
  • Water Temperature
  • Weather Map
  • News
  • Weather Widgets
  • user-avatar
    Login

    Hourly Weather Thunder Bay

    Today, 9 December, Monday

    Time Temperature Precipitation Wind Pressure Humidity
    00:00 -18°C° 0 mm 4 mps 736 mmHg 80%
    01:00 -18°C° 0.2 mm 4 mps 736 mmHg 82%
    02:00 -18°C° 0.2 mm 4 mps 735 mmHg 84%
    03:00 -18°C° 0.2 mm 4 mps 735 mmHg 86%
    04:00 -18°C° 0.4 mm 4 mps 734 mmHg 88%
    05:00 -19°C° 0.4 mm 4 mps 734 mmHg 91%
    06:00 -19°C° 0.4 mm 4 mps 733 mmHg 94%
    07:00 -19°C° 0.5 mm 4 mps 733 mmHg 94%
    08:00 -19°C° 0.5 mm 4 mps 733 mmHg 94%
    09:00 -19°C° 0.5 mm 4 mps 732 mmHg 94%
    10:00 -18°C° 0.4 mm 4 mps 732 mmHg 93%
    11:00 -18°C° 0.4 mm 4 mps 731 mmHg 92%
    12:00 -18°C° 0.4 mm 5 mps 731 mmHg 91%
    13:00 -18°C° 0.3 mm 5 mps 730 mmHg 91%
    14:00 -18°C° 0.3 mm 5 mps 730 mmHg 90%
    15:00 -18°C° 0.3 mm 6 mps 729 mmHg 90%
    16:00 -18°C° 0.1 mm 6 mps 730 mmHg 88%
    17:00 -20°C° 0.1 mm 6 mps 730 mmHg 85%
    18:00 -20°C° 0.1 mm 6 mps 730 mmHg 83%
    19:00 -21°C° 0 mm 5 mps 730 mmHg 83%
    20:00 -22°C° 0 mm 5 mps 730 mmHg 83%
    21:00 -24°C° 0 mm 5 mps 731 mmHg 83%
    22:00 -24°C° 0 mm 5 mps 731 mmHg 83%
    23:00 -25°C° 0 mm 5 mps 731 mmHg 83%

    Tomorrow, 10 December, Tuesday

    Time Temperature Precipitation Wind Pressure Humidity
    00:00 -24°C° 0 mm 4 mps 732 mmHg 84%
    01:00 -24°C° 0 mm 4 mps 732 mmHg 85%
    02:00 -24°C° 0 mm 4 mps 733 mmHg 86%
    03:00 -25°C° 0 mm 4 mps 733 mmHg 88%
    04:00 -25°C° 0 mm 4 mps 733 mmHg 87%
    05:00 -25°C° 0 mm 5 mps 734 mmHg 87%
    06:00 -25°C° 0 mm 5 mps 734 mmHg 87%
    07:00 -25°C° 0 mm 5 mps 735 mmHg 86%
    08:00 -25°C° 0 mm 5 mps 735 mmHg 86%
    09:00 -25°C° 0 mm 5 mps 736 mmHg 86%
    10:00 -25°C° 0 mm 5 mps 736 mmHg 82%
    11:00 -24°C° 0 mm 5 mps 737 mmHg 79%
    12:00 -24°C° 0 mm 5 mps 737 mmHg 76%
    13:00 -24°C° 0 mm 5 mps 737 mmHg 77%
    14:00 -23°C° 0 mm 4 mps 737 mmHg 77%
    15:00 -23°C° 0 mm 4 mps 737 mmHg 78%
    16:00 -23°C° 0 mm 4 mps 738 mmHg 81%
    17:00 -24°C° 0 mm 4 mps 738 mmHg 84%
    18:00 -25°C° 0 mm 4 mps 738 mmHg 86%
    19:00 -25°C° 0 mm 4 mps 738 mmHg 86%
    20:00 -25°C° 0 mm 4 mps 738 mmHg 86%
    21:00 -24°C° 0 mm 3 mps 738 mmHg 86%
    22:00 -24°C° 0 mm 3 mps 738 mmHg 88%
    23:00 -24°C° 0 mm 3 mps 738 mmHg 90%

    Day after tomorrow, 11 December, Wednesday

    Time Temperature Precipitation Wind Pressure Humidity
    00:00 -25°C° 0 mm 3 mps 739 mmHg 91%
    01:00 -26°C° 0 mm 4 mps 739 mmHg 91%
    02:00 -26°C° 0 mm 4 mps 739 mmHg 91%
    03:00 -26°C° 0 mm 4 mps 739 mmHg 91%
    04:00 -28°C° 0 mm 5 mps 740 mmHg 91%
    05:00 -28°C° 0 mm 5 mps 740 mmHg 91%
    06:00 -29°C° 0 mm 5 mps 740 mmHg 91%
    07:00 -28°C° 0 mm 5 mps 741 mmHg 89%
    08:00 -29°C° 0 mm 6 mps 742 mmHg 87%
    09:00 -29°C° 0 mm 6 mps 742 mmHg 85%
    10:00 -27°C° 0 mm 6 mps 743 mmHg 84%
    11:00 -26°C° 0 mm 6 mps 743 mmHg 82%
    12:00 -24°C° 0 mm 6 mps 744 mmHg 81%
    13:00 -24°C° 0 mm 5 mps 744 mmHg 80%
    14:00 -22°C° 0 mm 5 mps 744 mmHg 80%
    15:00 -22°C° 0 mm 5 mps 745 mmHg 79%
    16:00 -22°C° 0 mm 5 mps 745 mmHg 82%
    17:00 -24°C° 0 mm 5 mps 746 mmHg 84%
    18:00 -24°C° 0 mm 5 mps 747 mmHg 87%
    19:00 -24°C° 0 mm 4 mps 747 mmHg 88%
    20:00 -24°C° 0 mm 4 mps 747 mmHg 88%
    21:00 -24°C° 0 mm 4 mps 748 mmHg 89%
    22:00 -23°C° 0 mm 3 mps 748 mmHg 90%
    23:00 -24°C° 0 mm 3 mps 748 mmHg 91%

    12 December, Thursday

    Time Temperature Precipitation Wind Pressure Humidity
    00:00 -24°C° 0 mm 3 mps 748 mmHg 92%
    01:00 -23°C° 0 mm 2 mps 748 mmHg 91%
    02:00 -23°C° 0 mm 2 mps 748 mmHg 90%
    03:00 -21°C° 0 mm 2 mps 748 mmHg 89%
    04:00 -19°C° 0 mm 1 mps 748 mmHg 88%
    05:00 -18°C° 0 mm 1 mps 748 mmHg 86%
    06:00 -18°C° 0 mm 1 mps 748 mmHg 85%
    07:00 -17°C° 0 mm 1 mps 748 mmHg 83%
    08:00 -16°C° 0 mm 1 mps 748 mmHg 81%
    09:00 -16°C° 0 mm 0 mps 748 mmHg 80%
    10:00 -14°C° 0.1 mm 0 mps 747 mmHg 82%
    11:00 -13°C° 0.1 mm 1 mps 747 mmHg 85%
    12:00 -12°C° 0.1 mm 1 mps 746 mmHg 87%
    13:00 -11°C° 0.1 mm 1 mps 745 mmHg 89%
    14:00 -11°C° 0.1 mm 1 mps 744 mmHg 90%
    15:00 -11°C° 0.1 mm 1 mps 744 mmHg 91%
    16:00 -11°C° 0.1 mm 1 mps 743 mmHg 92%
    17:00 -11°C° 0.1 mm 1 mps 743 mmHg 93%
    18:00 -12°C° 0.1 mm 1 mps 743 mmHg 95%
    19:00 -12°C° 0.1 mm 1 mps 742 mmHg 95%
    20:00 -11°C° 0.1 mm 1 mps 742 mmHg 95%
    21:00 -11°C° 0.1 mm 1 mps 742 mmHg 95%
    22:00 -11°C° 0 mm 1 mps 741 mmHg 95%
    23:00 -11°C° 0 mm 1 mps 741 mmHg 95%

    13 December, Friday

    Time Temperature Precipitation Wind Pressure Humidity
    00:00 -11°C° 0 mm 1 mps 741 mmHg 95%
    01:00 -11°C° 0 mm 1 mps 740 mmHg 95%
    02:00 -12°C° 0 mm 1 mps 740 mmHg 94%
    03:00 -12°C° 0 mm 1 mps 740 mmHg 94%
    04:00 -12°C° 0 mm 1 mps 739 mmHg 94%
    05:00 -12°C° 0 mm 1 mps 739 mmHg 94%
    06:00 -12°C° 0 mm 1 mps 739 mmHg 94%
    07:00 -11°C° 0 mm 0 mps 739 mmHg 93%
    08:00 -11°C° 0 mm 0 mps 739 mmHg 93%
    09:00 -10°C° 0 mm 0 mps 739 mmHg 92%
    10:00 -9°C° 0 mm 0 mps 738 mmHg 91%
    11:00 -8°C° 0 mm 1 mps 737 mmHg 89%
    12:00 -6°C° 0 mm 1 mps 737 mmHg 88%
    13:00 -6°C° 0 mm 1 mps 736 mmHg 89%
    14:00 -7°C° 0 mm 2 mps 736 mmHg 91%
    15:00 -7°C° 0 mm 2 mps 735 mmHg 92%
    16:00 -6°C° 0 mm 2 mps 735 mmHg 92%
    17:00 -6°C° 0 mm 2 mps 735 mmHg 93%
    18:00 -6°C° 0 mm 2 mps 735 mmHg 93%
    19:00 -6°C° 0 mm 2 mps 734 mmHg 93%
    20:00 -5°C° 0 mm 2 mps 734 mmHg 92%
    21:00 -5°C° 0 mm 2 mps 733 mmHg 92%
    22:00 -5°C° 0 mm 2 mps 733 mmHg 93%
    23:00 -4°C° 0 mm 2 mps 732 mmHg 94%

    14 December, Saturday

    Time Temperature Precipitation Wind Pressure Humidity
    00:00 -4°C° 0 mm 2 mps 732 mmHg 95%
    01:00 -4°C° 0.1 mm 2 mps 731 mmHg 95%
    02:00 -5°C° 0.1 mm 3 mps 731 mmHg 96%
    03:00 -4°C° 0.1 mm 3 mps 730 mmHg 96%
    04:00 -5°C° 0.4 mm 4 mps 730 mmHg 95%
    05:00 -5°C° 0.4 mm 4 mps 730 mmHg 95%
    06:00 -6°C° 0.4 mm 5 mps 729 mmHg 94%
    07:00 -7°C° 0.4 mm 5 mps 729 mmHg 94%
    08:00 -7°C° 0.4 mm 5 mps 729 mmHg 94%
    09:00 -8°C° 0.4 mm 5 mps 729 mmHg 94%
    10:00 -8°C° 0.5 mm 5 mps 728 mmHg 93%
    11:00 -8°C° 0.5 mm 5 mps 728 mmHg 93%
    12:00 -8°C° 0.5 mm 5 mps 727 mmHg 92%
    13:00 -10°C° 0.3 mm 6 mps 727 mmHg 92%
    14:00 -10°C° 0.3 mm 6 mps 727 mmHg 92%
    15:00 -11°C° 0.3 mm 6 mps 726 mmHg 92%
    16:00 -11°C° 0.2 mm 6 mps 726 mmHg 90%
    17:00 -12°C° 0.2 mm 6 mps 726 mmHg 89%
    18:00 -14°C° 0.2 mm 6 mps 727 mmHg 87%
    19:00 -14°C° 0.1 mm 6 mps 727 mmHg 87%
    20:00 -14°C° 0.1 mm 6 mps 727 mmHg 88%
    21:00 -15°C° 0.1 mm 6 mps 726 mmHg 88%
    22:00 -15°C° 0.2 mm 7 mps 726 mmHg 87%
    23:00 -17°C° 0.2 mm 7 mps 726 mmHg 86%
    Show more